Location: Unspecified
(0.0000°N, 0.0000°E)
Time: 07:18:35
(UTC+00:00)

PAYLOAD D - Visible Passes

Search period start: 10 June 2023 00:00
Search period end: 20 June 2023 00:00
Orbit: 1412 x 1416 km, 82.5° (Epoch: 09 June)

Date Brightness Start Highest point End Pass type
(mag) Time Alt. Az. Time Alt. Az. Time Alt. Az.
10 Jun 8.6 19:46:10 10° SSW 19:54:09 50° W 20:02:09 10° NNW visible
11 Jun 7.9 18:35:42 10° SSE 18:43:46 53° E 18:51:49 10° NNE visible
11 Jun 10.0 20:33:16 10° SW 20:38:24 18° W 20:43:35 10° NW visible
12 Jun 8.2 19:19:47 10° SSW 19:28:02 64° W 19:36:17 10° N visible
13 Jun 9.7 20:06:00 10° SW 20:12:17 24° W 20:18:36 10° NW visible
14 Jun 7.9 18:53:32 10° S 19:01:55 80° W 19:10:17 10° N visible
15 Jun 10.3 05:23:56 10° NE 05:29:21 19° E 05:34:43 10° SE visible
15 Jun 9.4 19:39:05 10° SW 19:46:10 31° W 19:53:16 10° NNW visible
16 Jun 7.8 18:27:24 10° S 18:35:48 82° E 18:44:10 10° N visible
17 Jun 10.5 04:59:31 10° ENE 05:03:13 13° E 05:06:55 10° ESE visible
17 Jun 9.1 19:12:25 10° SSW 19:20:03 40° W 19:27:43 10° NNW visible
18 Jun 10.3 20:00:40 10° WSW 20:04:19 13° W 20:07:58 10° WNW visible
19 Jun 8.7 18:45:54 10° SSW 18:53:55 51° W 19:01:58 10° NNW visible
